1st Responders/1st Detectors/Storm Spotters Weather Summary for Martin County, KY

Forecast Maps


Reg. NEXRAD Animation


National Fire Danger: Day 1 & 2 Map

Current NWS Watch/Warnings

SPC Convective Day 1 Outlook


Day 2 Outlook

(Click images to enlarge|Page will refresh every 5 minutes)
UK Ag. Weather Center Desktop Severe Weather Service[HERE]
Martin County, KY Hazardous Weather Outlook Webcast
(9 AM to 9 PM Mon-Fri)
[Fast]
[Dial-up]


UKAWC 1st Detectors/1st Responders Precision Weather Forecast For MARTIN County, Kentucky
(based on the NWS County Digital Forecast)

ISSUED AT 16:00 UTC ON MONDAY SEP 24 2018
DAY MONDAY
EDT 3HR 1P 2P 3P 4P 5P 6P 7P
MAX/MIN -- -- -- -- -- -- 76°
TEMP 74° 76° 76° 76° 76° 74° 72°
SKY COVER 100% 100% 99% 98% 97% 98% 99%
Clouds
DEW PT 70° 70° 70° 68° 68° 67° 67°
RH 87% 81% 82% 79% 78% 78% 81%
POP 12HR -- -- -- -- -- -- --
RAIN/SNOW (liq.equ) -- 0.16in -- -- -- -- --
SNOWFALL -- 0in -- -- -- -- --
WIND SPEED(MPH) 6 6 6 6 5 5 5
WIND Gust(MPH) 7 7 7 7 6 6 6
WIND DIR SE SE SE SE SE SE SE
DEW -- -- -- -- -- -- --
HeatIndex 74 76 76 76 76 74 72
Rain Showers Chance Chance Chance Chance Chance Chance Likely
Thunder Storm Slight Chance Slight Chance Slight Chance Slight Chance Slight Chance Slight Chance Slight Chance
WIND CHILL -- -- -- -- -- -- --
SPRAY COND
DRY COND
LIVESTOCK HEATSTRESS 72.91 74.20 74.30 74.01 73.92 72.16 70.62



DAY TUESDAY WEDNESDAY THURSDAY FRIDAY SATURDAY SUNDAY
EDT 6HR 8P 9P 10P 11P MIDN 1A 2A 3A 4A 5A 6A 7A 8A 9A 10A 11A NOON 1P 2P 3P 4P 5P 6P 7P 8P 9P 10P 11P MIDN 2A 5A 8A 11A 2P 5P 8P 2A 8A 2P 8P 2A 8A 2P 8P 2A 8A 2P 8P 2A 8A 2P 8P
MAX/MIN -- -- -- -- -- -- -- -- -- -- -- -- 65° -- -- -- -- -- -- -- -- -- -- 81° -- -- -- -- -- -- -- 67° -- -- 76° -- -- 59° 74° -- -- 59° 76° -- -- 58° 79° -- -- 56° 81° --
TEMP 70° 68° 67° 67° 67° 67° 67° 67° 67° 67° 65° 65° 67° 68° 72° 74° 76° 79° 79° 81° 81° 81° 79° 76° 74° 72° 72° 72° 72° 70° 70° 67° 74° 76° 74° 68° 63° 61° 72° 65° 63° 61° 76° 67° 61° 59° 77° 67° 58° 58° 81° 70°
SKY COVER 100% 100% 100% 100% 100% 100% 100% 100% 100% 99% 96% 92% 88% 84% 81% 77% 76% 75% 74% 73% 70% 69% 70% 72% 74% 74% 74% 74% 75% 79% 84% 96% 94% 95% 95% 89% 85% 85% 90% 83% 69% 69% 37% 20% 21% 23% 17% 17% 20% 23% 21% 17%
Clouds
DEW PT 67° 67° 65° 65° 65° 65° 65° 65° 65° 65° 65° 65° 65° 67° 68° 70° 70° 70° 70° 70° 70° 70° 70° 70° 70° 70° 68° 68° 68° 68° 67° 67° 70° 70° 70° 67° 61° 59° 63° 63° 61° 61° 58° 58° 56° 56° 58° 59° 58° 58° 65° 65°
RH 89% 93% 92% 93% 92% 93% 93% 92% 96% 97% 99% 100% 96% 93% 90% 84% 78% 76% 74% 72% 69% 71% 76% 81% 84% 90% 87% 90% 90% 93% 93% 97% 90% 81% 87% 93% 96% 96% 73% 93% 96% 100% 55% 72% 86% 89% 52% 77% 100% 100% 60% 81%
POP 12HR 100% -- -- -- -- -- -- -- -- -- -- -- 55% -- -- -- -- -- -- -- -- -- -- -- 54% -- -- -- -- -- -- 66% -- -- -- 72% -- 52% -- 35% -- 25% -- 12% -- 4% -- 3% -- 4% -- 6%
RAIN/SNOW (liq.equ) 0.01in -- -- -- -- -- 0.07in -- -- -- -- -- 0.08in -- -- -- -- -- 0.16in -- -- -- -- -- 0.06in -- -- -- -- 0.01in -- 0.24in -- 0.18in -- 0.30in -- -- -- -- -- -- -- -- -- -- -- -- -- -- -- --
SNOWFALL 0in -- -- -- -- -- 0in -- -- -- -- -- 0in -- -- -- -- -- 0in -- -- -- -- -- 0in -- -- -- -- 0in -- 0in -- 0in -- 0in -- -- -- -- -- -- -- -- -- -- -- -- -- -- -- --
WIND SPEED(MPH) 6 6 7 6 6 6 5 5 5 2 2 2 2 5 5 6 6 6 6 6 5 5 5 2 2 2 5 5 5 5 5 5 6 6 5 5 5 2 2 1 1 1 5 1 1 1 2 1 1 1 2 1
WIND DIR SE SE SE SE SE SE SE SE SE SE SE SE SE S S S S S S S S S S S S S S S S S S S SW SW W NW N NE NW N SW W W NE E E S NE S S SW E
HeatIndex 70 68 67 67 67 67 67 67 67 67 65 65 67 68 72 74 76 79 83 85 86 85 79 76 74 72 72 72 72 70 70 67 74 76 74 68 63 61 72 65 63 61 76 67 61 59 77 67 58 58 83 70
Rain Showers Likely Likely Likely Likely Chance Chance Chance Chance Chance Chance Chance Chance Chance Chance Chance Chance Chance Chance Chance Chance Chance Chance Chance Chance Chance Chance Chance Chance Chance Chance Likely Likely Likely Likely Likely Chance Chance Slight Chance Chance Chance -- -- -- -- -- -- -- -- -- -- -- --
Thunder Storm Slight Chance Slight Chance Slight Chance Slight Chance Slight Chance Slight Chance Slight Chance Slight Chance Slight Chance Slight Chance Slight Chance Slight Chance Slight Chance Slight Chance Slight Chance Slight Chance Slight Chance Slight Chance Slight Chance Slight Chance Slight Chance Slight Chance Slight Chance Slight Chance -- -- -- -- -- Slight Chance Slight Chance -- -- Slight Chance Slight Chance -- -- -- -- -- -- -- -- -- -- -- -- -- -- -- -- --
WIND CHILL -- -- -- -- -- -- -- -- -- -- -- -- -- -- -- -- -- -- -- -- -- -- -- -- -- -- -- -- -- -- -- -- -- -- -- -- -- -- -- -- -- -- -- -- -- -- -- -- -- -- -- --
SPRAY COND
DRY COND
LIVESTOCK HEATSTRESS 69.32 67.65 66.64 66.68 66.64 66.68 66.68 66.64 66.82 66.86 64.97 65.00 66.82 67.65 71.27 72.66 73.92 76.33 76.11 77.58 77.21 77.46 76.33 74.20 72.66 71.27 71.06 71.27 71.27 69.57 69.57 66.86 73.16 74.20 72.91 67.65 62.91 60.95 70.04 64.76 62.91 61.00 71.74 65.74 60.83 58.99 72.20 65.96 58.00 58.00 76.12 68.83

Click on individual weather variable above in left-hand column (ie., TEMP, RH, QPF 12HR) to view state forecast maps






NWS 48 Hr. Forecast Maps,

Regional Hourly Observations For MARTIN County, Kentucky
Issued at 100 PM EDT MON SEP 24 2018
SOUTHEAST KENTUCKY
  
CITY           SKY/WX    TMP DP  RH WIND       PRES   REMARKS
JACKSON        LGT RAIN  69  67  93 SE3       30.17S                  
LONDON         CLOUDY    71  69  93 SE5       30.15F                  
SOMERSET       NOT AVBL                                               
MIDDLESBORO    NOT AVBL                                               
MONTICELLO     RAIN      70  68  93 SE10      30.14R FOG              


Current NOWCAST not available:
Nowcasts are not issued routinely during fair weather. Only when
precipitation or other significant weather is occuring in this county will these
forecasts be issued. Currently, there is no short term forecast in effect.


Fire Weather Forecast For MARTIN County, KY
Provided by the National Weather Service:

Issued at: Mon Sep 24 12:05:02 EDT 2018

518 AM EDT Mon Sep 24 2018

                      Today        Tonight      Tue          

Cloud Cover           Cloudy       Cloudy       MCldy        
Chance precip (%)     100          90           60           
Precip type           tstms        tstms        tstms        
Temp (24H TREND)      72-75 (+10)  65-67 (+5)   78-79        
Rh % (24H TREND)      75-82 (-8)   97-100 (0)   70-75        
20ftwnd-AM(mph)       SE 2-6                    S 3-7        
20ftwnd-PM(mph)       SE 2-6       SE 3-7       S 3-7        
Precip duration       8            4            3            
Precip begin          8 AM         Continuing   Continuing   
Precip end            Continuing   Continuing   Continuing   
Precip amount         0.49         0.25         0.31         
LAL                   3            3            2            
Haines Index (MID)    3                         3            
Mixing hgt(ft-AGL)    2200                      3600         
Transport wnd (mph)   SE 12                     S 14         
Vent rate (kt-ft)     23796                     41392        
ADI Early             20 Gen Poor  9 Poor       30 Fair      
ADI Late              24 Fair      6 Very Poor  36 Fair      
Max LVORI Early       9            6            8            
Max LVORI Late        5            8            5            

REMARKS...RANGES OF MIN T EXCEEDING 8 DEGREES & RANGES OF MAX RH        
EXCEEDING 10% INDICATE THE LIKELIHOOD OF THERMAL BELTS. ADI IS        
ATMOSPHERIC DISPERSION INDEX BY LAVDAS. DISPERSION INDEX IS        
MAGNITUDE OF VENT RATE DIVIDED BY 1000.


SPC's Fire Weather Web Tool (Excellent!), SPC's Fire Weather Outlooks, NWS Fire Weather WEB, Fire Danger Class Map,
Keetch-Byram Drought Index, ROMAN Web, Haines Index ,
WFAS's 10-hr Dead Fuel Moist., WFAS's 100-hr Dead Fuel Moist., Probablity of Ignition, Visual blackness Map, Palmer Drought Index, HPC's Rainfall Forecast Maps


Hazardous Weather Outlook For MARTIN County, Kentucky
1259 PM EDT Mon Sep 24 2018

   FLASH FLOOD WATCH IN EFFECT THROUGH WEDNESDAY AFTERNOON  

This hazardous weather outlook is for portions of eastern Kentucky.

 DAY ONE  This afternoon and Tonight.

Periods of showers and thunderstorms could lead to heavy rainfall
and flooding through tonight. 

 DAYS TWO THROUGH SEVEN  Tuesday through Sunday.

Thunderstorms will be possible at times from Tuesday through 
Thursday. On Tuesday and Wednesday some of the storms could 
produce heavy rainfall, with a few storms also capable of 
producing strong winds and hail. The greatest threat remains 
flooding, with flooding of creeks and streams being possible 
through Wednesday. The greatest threat for river flooding will be 
along the Red River.

 SPOTTER INFORMATION STATEMENT  

Spotters are encouraged to report any instances of flooding. 

Latest MARTIN County, Kentucky Watches, Warnings and Advisories.
Additional Drought Info.: UKAWC Drought Page, Kentucky Drought Watch


7-Day Forecast For MARTIN County, KY


FLASH FLOOD WATCH IN EFFECT UNTIL 8 PM EDT THIS EVENING

REST OF TODAY
Cloudy. Showers likely and a chance of thunderstorms. Some thunderstorms may produce heavy rainfall. Some thunderstorms may produce heavy rainfall late. Highs in the mid 70s. Light winds. Chance of rain 70 percent.

TONIGHT
Cloudy. Showers likely and a chance of thunderstorms in the evening, then a chance of showers and a slight chance of thunderstorms late. Lows in the mid 60s. Light winds. Chance of rain 60 percent.

TUESDAY
Mostly cloudy. Showers likely and a slight chance of thunderstorms. Highs in the lower 80s. Light winds. Chance of rain 60 percent.

TUESDAY NIGHT
Mostly cloudy. A chance of showers in the evening, then showers likely and a slight chance of thunderstorms late. Lows in the upper 60s. Light winds. Chance of rain 70 percent.

WEDNESDAY
Cloudy. Showers likely in the morning, then showers likely and a slight chance of thunderstorms in the afternoon. Highs in the upper 70s. Light winds. Chance of rain 70 percent.

WEDNESDAY NIGHT
Mostly cloudy with a 50 percent chance of showers. Lows in the upper 50s.

THURSDAY
Mostly cloudy with a 30 percent chance of showers. Highs in the mid 70s.

THURSDAY NIGHT
Mostly cloudy with a 20 percent chance of showers. Lows around 60.

FRIDAY
Mostly sunny. Highs in the mid 70s.

FRIDAY NIGHT
Mostly clear. Lows in the upper 50s.

SATURDAY
Sunny. Highs in the upper 70s.

SATURDAY NIGHT
Mostly clear. Lows in the upper 50s.

SUNDAY
Sunny. Highs around 80.

Ag Weather Center, Department of Biosystems & Agricultural Engineering, University of Kentucky